Time,TemperatureF,DewpointF,PressureIn,WindDirection,WindDirectionDegrees,WindSpeedMPH,WindSpeedGustMPH,Humidity,HourlyPrecipIn,Conditions,Clouds,dailyrainin,SoftwareType,DateUTC
2013-10-08 00:01:00,48.9,47.2,30.02,NNW,336,0.0,0.0,94,0.00,,---,0.00,VWS V14.01,2013-10-08 05:01:00,
2013-10-08 00:06:00,48.8,47.2,30.02,NNW,336,0.0,0.0,94,0.00,,---,0.00,VWS V14.01,2013-10-08 05:06:00,
2013-10-08 00:11:00,48.7,47.0,30.02,NNW,336,0.0,0.0,94,0.00,,---,0.00,VWS V14.01,2013-10-08 05:11:00,
2013-10-08 00:16:00,48.6,47.0,30.01,NNW,336,0.0,0.0,94,0.00,,---,0.00,VWS V14.01,2013-10-08 05:16:00,
2013-10-08 00:21:00,48.6,47.0,30.01,NNW,336,0.0,0.0,94,0.00,,---,0.00,VWS V14.01,2013-10-08 05:21:00,
2013-10-08 00:26:00,48.5,46.9,30.01,NNW,336,0.0,0.0,94,0.00,,---,0.00,VWS V14.01,2013-10-08 05:26:00,
2013-10-08 00:31:00,48.5,46.9,30.01,NNW,336,0.0,0.0,94,0.00,,---,0.00,VWS V14.01,2013-10-08 05:31:00,
2013-10-08 00:36:00,48.5,46.9,30.01,NNW,336,0.0,0.0,94,0.00,,---,0.00,VWS V14.01,2013-10-08 05:36:00,
2013-10-08 00:41:00,48.5,46.9,30.01,NNW,336,0.0,0.0,94,0.00,,---,0.00,VWS V14.01,2013-10-08 05:41:00,
2013-10-08 00:46:00,48.5,47.1,30.01,NNW,336,0.0,0.0,95,0.00,,---,0.00,VWS V14.01,2013-10-08 05:46:00,
2013-10-08 00:51:00,48.4,47.0,30.01,NNW,336,0.0,0.0,95,0.00,,---,0.00,VWS V14.01,2013-10-08 05:51:00,
2013-10-08 00:56:00,48.4,47.0,30.01,NNW,336,0.0,0.0,95,0.00,,---,0.00,VWS V14.01,2013-10-08 05:56:00,
2013-10-08 01:01:00,48.3,46.9,30.01,NNW,336,0.0,0.0,95,0.00,,---,0.00,VWS V14.01,2013-10-08 06:01:00,
2013-10-08 01:06:00,48.2,46.8,30.01,NNW,336,0.0,0.0,95,0.00,,---,0.00,VWS V14.01,2013-10-08 06:06:00,
2013-10-08 01:11:00,48.1,46.7,30.01,NNW,336,0.0,0.0,95,0.00,,---,0.00,VWS V14.01,2013-10-08 06:11:00,
2013-10-08 01:16:00,48.0,46.6,30.01,NNW,336,0.0,0.0,95,0.00,,---,0.00,VWS V14.01,2013-10-08 06:16:00,
2013-10-08 01:21:00,47.9,46.5,30.01,NNW,336,0.0,0.0,95,0.00,,---,0.00,VWS V14.01,2013-10-08 06:21:00,
2013-10-08 01:26:00,47.8,46.4,30.01,NNW,336,0.0,0.0,95,0.00,,---,0.00,VWS V14.01,2013-10-08 06:26:00,
2013-10-08 01:31:00,47.7,46.3,30.02,NNW,336,0.0,0.0,95,0.00,,---,0.00,VWS V14.01,2013-10-08 06:31:00,
2013-10-08 01:36:00,47.7,46.3,30.02,NNW,336,0.0,0.0,95,0.00,,---,0.00,VWS V14.01,2013-10-08 06:36:00,
2013-10-08 01:41:00,47.7,46.3,30.02,NNW,336,0.0,0.0,95,0.00,,---,0.00,VWS V14.01,2013-10-08 06:41:00,
2013-10-08 01:46:00,47.6,46.2,30.02,NNW,336,0.0,0.0,95,0.00,,---,0.00,VWS V14.01,2013-10-08 06:46:00,
2013-10-08 01:51:00,47.5,46.1,30.02,NNW,336,0.0,0.0,95,0.00,,---,0.00,VWS V14.01,2013-10-08 06:51:00,
2013-10-08 01:56:00,47.3,45.9,30.02,NNW,336,0.0,0.0,95,0.00,,---,0.00,VWS V14.01,2013-10-08 06:56:00,
2013-10-08 02:01:00,47.3,45.9,30.02,NNW,336,0.0,0.0,95,0.00,,---,0.00,VWS V14.01,2013-10-08 07:01:00,
2013-10-08 02:06:00,47.3,45.9,30.02,NNW,336,0.0,0.0,95,0.00,,---,0.00,VWS V14.01,2013-10-08 07:06:00,
2013-10-08 02:11:00,47.3,45.9,30.02,NNW,336,0.0,0.0,95,0.00,,---,0.00,VWS V14.01,2013-10-08 07:11:00,
2013-10-08 02:16:00,47.2,45.8,30.02,NNW,336,0.0,0.0,95,0.00,,---,0.00,VWS V14.01,2013-10-08 07:16:00,
2013-10-08 02:21:00,47.1,45.7,30.02,NNW,336,0.0,0.0,95,0.00,,---,0.00,VWS V14.01,2013-10-08 07:21:00,
2013-10-08 02:26:00,47.2,45.8,30.02,NNW,336,0.0,0.0,95,0.00,,---,0.00,VWS V14.01,2013-10-08 07:26:00,
2013-10-08 02:31:00,47.1,45.7,30.02,NNW,336,0.0,0.0,95,0.00,,---,0.00,VWS V14.01,2013-10-08 07:31:00,
2013-10-08 02:36:00,47.0,45.7,30.02,NNW,336,0.0,0.0,95,0.00,,---,0.00,VWS V14.01,2013-10-08 07:36:00,
2013-10-08 02:41:00,46.9,45.5,30.02,NNW,336,0.0,0.0,95,0.00,,---,0.00,VWS V14.01,2013-10-08 07:41:00,
2013-10-08 02:46:00,46.9,45.5,30.02,NNW,336,0.0,0.0,95,0.00,,---,0.00,VWS V14.01,2013-10-08 07:46:00,
2013-10-08 02:51:00,46.8,45.5,30.02,NNW,336,0.0,0.0,95,0.00,,---,0.00,VWS V14.01,2013-10-08 07:51:00,
2013-10-08 02:56:00,46.8,45.5,30.02,NNW,336,0.0,0.0,95,0.00,,---,0.00,VWS V14.01,2013-10-08 07:56:00,
2013-10-08 03:01:00,46.8,45.5,30.02,NNW,336,0.0,0.0,95,0.00,,---,0.00,VWS V14.01,2013-10-08 08:01:00,
2013-10-08 03:06:00,46.7,45.3,30.02,NNW,336,0.0,0.0,95,0.00,,---,0.00,VWS V14.01,2013-10-08 08:06:00,
2013-10-08 03:11:00,46.7,45.3,30.02,NNW,336,0.0,0.0,95,0.00,,---,0.00,VWS V14.01,2013-10-08 08:11:00,
2013-10-08 03:16:00,46.6,45.2,30.02,NNW,336,0.0,0.0,95,0.00,,---,0.00,VWS V14.01,2013-10-08 08:16:00,
2013-10-08 03:21:00,46.5,45.2,30.02,NNW,336,0.0,0.0,95,0.00,,---,0.00,VWS V14.01,2013-10-08 08:21:00,
2013-10-08 03:26:00,46.7,45.3,30.02,NNW,336,0.0,0.0,95,0.00,,---,0.00,VWS V14.01,2013-10-08 08:26:00,
2013-10-08 03:31:00,46.8,45.5,30.02,NNW,336,0.0,0.0,95,0.00,,---,0.00,VWS V14.01,2013-10-08 08:31:00,
2013-10-08 03:36:00,46.8,45.5,30.02,NNW,336,0.0,0.0,95,0.00,,---,0.00,VWS V14.01,2013-10-08 08:36:00,
2013-10-08 03:41:00,46.8,45.5,30.02,NNW,336,0.0,0.0,95,0.00,,---,0.00,VWS V14.01,2013-10-08 08:41:00,
2013-10-08 03:46:00,46.8,45.5,30.02,NNW,336,0.0,0.0,95,0.00,,---,0.00,VWS V14.01,2013-10-08 08:46:00,
2013-10-08 03:51:00,46.7,45.3,30.02,NNW,336,0.0,0.0,95,0.00,,---,0.00,VWS V14.01,2013-10-08 08:51:00,
2013-10-08 03:56:00,46.7,45.3,30.02,NNW,336,0.0,0.0,95,0.00,,---,0.00,VWS V14.01,2013-10-08 08:56:00,
2013-10-08 04:01:00,46.7,45.3,30.02,NNW,336,0.0,0.0,95,0.00,,---,0.00,VWS V14.01,2013-10-08 09:01:00,
2013-10-08 04:06:00,46.7,45.3,30.02,NNW,336,0.0,0.0,95,0.00,,---,0.00,VWS V14.01,2013-10-08 09:06:00,
2013-10-08 04:11:00,46.7,45.3,30.02,NNW,336,0.0,0.0,95,0.01,,---,0.01,VWS V14.01,2013-10-08 09:11:00,
2013-10-08 04:16:00,46.8,45.5,30.03,NNW,336,0.0,0.0,95,0.01,,---,0.01,VWS V14.01,2013-10-08 09:16:00,
2013-10-08 04:21:00,46.7,45.3,30.03,NNW,336,0.0,0.0,95,0.01,,---,0.01,VWS V14.01,2013-10-08 09:21:00,
2013-10-08 04:26:00,46.7,45.3,30.03,NNW,336,0.0,0.0,95,0.01,,---,0.01,VWS V14.01,2013-10-08 09:26:00,
2013-10-08 04:31:00,46.6,45.2,30.03,NNW,336,0.0,0.0,95,0.01,,---,0.01,VWS V14.01,2013-10-08 09:31:00,
2013-10-08 04:36:00,46.5,45.2,30.03,NNW,336,0.0,0.0,95,0.01,,---,0.01,VWS V14.01,2013-10-08 09:36:00,
2013-10-08 04:41:00,46.5,45.2,30.03,NNW,336,0.0,0.0,95,0.01,,---,0.01,VWS V14.01,2013-10-08 09:41:00,
2013-10-08 04:46:00,46.4,45.0,30.03,NNW,336,0.0,0.0,95,0.01,,---,0.01,VWS V14.01,2013-10-08 09:46:00,
2013-10-08 04:51:00,46.3,45.0,30.03,NNW,336,0.0,0.0,95,0.01,,---,0.01,VWS V14.01,2013-10-08 09:51:00,
2013-10-08 04:56:00,46.3,45.0,30.03,NNW,336,0.0,0.0,95,0.01,,---,0.01,VWS V14.01,2013-10-08 09:56:00,
2013-10-08 05:01:00,46.1,44.8,30.04,NNW,336,0.0,0.0,95,0.01,,---,0.01,VWS V14.01,2013-10-08 10:01:00,
2013-10-08 05:06:00,46.1,44.8,30.04,NNW,336,0.0,0.0,95,0.01,,---,0.01,VWS V14.01,2013-10-08 10:06:00,
2013-10-08 05:11:00,46.2,44.8,30.04,NNW,336,0.0,0.0,95,0.01,,---,0.01,VWS V14.01,2013-10-08 10:11:00,
2013-10-08 05:16:00,46.2,44.8,30.04,NNW,336,0.0,0.0,95,0.01,,---,0.01,VWS V14.01,2013-10-08 10:16:00,
2013-10-08 05:21:00,46.1,44.8,30.04,NNW,336,0.0,0.0,95,0.01,,---,0.01,VWS V14.01,2013-10-08 10:21:00,
2013-10-08 05:26:00,46.2,44.8,30.04,NNW,336,0.0,0.0,95,0.01,,---,0.01,VWS V14.01,2013-10-08 10:26:00,
2013-10-08 05:31:00,46.4,45.0,30.04,NNW,336,0.0,0.0,95,0.01,,---,0.01,VWS V14.01,2013-10-08 10:31:00,
2013-10-08 05:36:00,46.5,45.4,30.04,NNW,336,0.0,0.0,96,0.00,,---,0.01,VWS V14.01,2013-10-08 10:36:00,
2013-10-08 05:41:00,46.5,45.2,30.04,NNW,336,0.0,0.0,95,0.00,,---,0.01,VWS V14.01,2013-10-08 10:41:00,
2013-10-08 05:46:00,46.3,45.0,30.04,NNW,336,0.0,0.0,95,0.00,,---,0.01,VWS V14.01,2013-10-08 10:46:00,
2013-10-08 05:51:00,46.0,44.7,30.04,NNW,336,0.0,0.0,95,0.00,,---,0.01,VWS V14.01,2013-10-08 10:51:00,
2013-10-08 05:56:00,45.8,44.5,30.04,NNW,336,0.0,0.0,95,0.00,,---,0.01,VWS V14.01,2013-10-08 10:56:00,
2013-10-08 06:01:00,45.6,44.2,30.04,NNW,336,0.0,0.0,95,0.00,,---,0.01,VWS V14.01,2013-10-08 11:01:00,
2013-10-08 06:06:00,45.6,44.2,30.04,NNW,336,0.0,0.0,95,0.00,,---,0.01,VWS V14.01,2013-10-08 11:06:00,
2013-10-08 06:11:00,45.6,44.2,30.04,NNW,336,0.0,0.0,95,0.00,,---,0.01,VWS V14.01,2013-10-08 11:11:00,
2013-10-08 06:16:00,45.7,44.3,30.05,NNW,336,0.0,0.0,95,0.00,,---,0.01,VWS V14.01,2013-10-08 11:16:00,
2013-10-08 06:21:00,45.8,44.5,30.05,NNW,336,0.0,0.0,95,0.00,,---,0.01,VWS V14.01,2013-10-08 11:21:00,
2013-10-08 06:26:00,45.9,44.8,30.05,NNW,336,0.0,0.0,96,0.00,,---,0.01,VWS V14.01,2013-10-08 11:26:00,
2013-10-08 06:31:00,45.9,44.8,30.06,NNW,336,0.0,0.0,96,0.00,,---,0.01,VWS V14.01,2013-10-08 11:31:00,
2013-10-08 06:36:00,45.8,44.5,30.06,NNW,336,0.0,0.0,95,0.00,,---,0.01,VWS V14.01,2013-10-08 11:36:00,
2013-10-08 06:41:00,45.7,44.3,30.06,NNW,336,0.0,0.0,95,0.00,,---,0.01,VWS V14.01,2013-10-08 11:41:00,
2013-10-08 06:46:00,45.7,44.6,30.06,NNW,337,0.0,0.0,96,0.00,,---,0.01,VWS V14.01,2013-10-08 11:46:00,
2013-10-08 06:51:00,45.6,44.5,30.06,NNW,336,0.0,0.0,96,0.00,,---,0.01,VWS V14.01,2013-10-08 11:51:00,
2013-10-08 06:56:00,45.6,44.5,30.06,NNW,336,0.0,0.0,96,0.00,,---,0.01,VWS V14.01,2013-10-08 11:56:00,
2013-10-08 07:01:00,45.5,44.4,30.06,NNW,336,0.0,0.0,96,0.00,,---,0.01,VWS V14.01,2013-10-08 12:01:00,
2013-10-08 07:06:00,45.5,44.4,30.06,NNW,336,0.0,0.0,96,0.00,,---,0.01,VWS V14.01,2013-10-08 12:06:00,
2013-10-08 07:11:00,45.6,44.5,30.06,NNW,336,0.0,0.0,96,0.00,,---,0.01,VWS V14.01,2013-10-08 12:11:00,
2013-10-08 07:16:00,45.7,44.6,30.06,NNW,337,0.0,0.0,96,0.00,,---,0.01,VWS V14.01,2013-10-08 12:16:00,
2013-10-08 07:21:00,45.9,44.8,30.06,NNW,336,0.0,0.0,96,0.00,,---,0.01,VWS V14.01,2013-10-08 12:21:00,
2013-10-08 07:26:00,46.0,44.9,30.06,NNW,336,0.0,0.0,96,0.00,,---,0.01,VWS V14.01,2013-10-08 12:26:00,
2013-10-08 07:31:00,46.1,45.0,30.07,NNW,337,0.0,0.0,96,0.00,,---,0.01,VWS V14.01,2013-10-08 12:31:00,
2013-10-08 07:36:00,46.4,45.3,30.07,NNW,336,0.0,0.0,96,0.00,,---,0.01,VWS V14.01,2013-10-08 12:36:00,
2013-10-08 07:41:00,46.7,45.6,30.07,NNW,336,0.0,0.0,96,0.00,,---,0.01,VWS V14.01,2013-10-08 12:41:00,
2013-10-08 07:46:00,47.1,46.0,30.07,NNW,336,0.0,0.0,96,0.00,,---,0.01,VWS V14.01,2013-10-08 12:46:00,
2013-10-08 07:51:00,47.6,46.5,30.07,NNW,337,0.0,0.0,96,0.00,,---,0.01,VWS V14.01,2013-10-08 12:51:00,
2013-10-08 07:56:00,48.5,47.4,30.07,NNW,336,0.0,0.0,96,0.00,,---,0.01,VWS V14.01,2013-10-08 12:56:00,
2013-10-08 08:01:00,49.1,48.0,30.07,NE,40,0.0,1.0,96,0.00,,---,0.01,VWS V14.01,2013-10-08 13:01:00,
2013-10-08 08:06:00,49.6,48.5,30.07,NE,39,0.0,0.0,96,0.00,,---,0.01,VWS V14.01,2013-10-08 13:06:00,
2013-10-08 08:11:00,50.2,49.1,30.07,NE,40,0.0,1.0,96,0.00,,---,0.01,VWS V14.01,2013-10-08 13:11:00,
2013-10-08 08:16:00,50.7,49.6,30.08,NE,40,0.0,1.0,96,0.00,,---,0.01,VWS V14.01,2013-10-08 13:16:00,
2013-10-08 08:21:00,51.1,50.0,30.08,NE,41,0.0,1.0,96,0.00,,---,0.01,VWS V14.01,2013-10-08 13:21:00,
2013-10-08 08:26:00,51.5,50.4,30.08,ENE,58,0.0,2.0,96,0.00,,---,0.01,VWS V14.01,2013-10-08 13:26:00,
2013-10-08 08:31:00,51.9,50.8,30.08,ENE,58,0.0,2.0,96,0.00,,---,0.01,VWS V14.01,2013-10-08 13:31:00,
2013-10-08 08:36:00,52.4,51.3,30.08,East,83,1.0,2.0,96,0.00,,---,0.01,VWS V14.01,2013-10-08 13:36:00,
2013-10-08 08:41:00,52.7,51.6,30.08,ENE,69,1.0,4.0,96,0.00,,---,0.01,VWS V14.01,2013-10-08 13:41:00,
2013-10-08 08:46:00,53.3,52.2,30.08,ENE,76,0.0,4.0,96,0.00,,---,0.01,VWS V14.01,2013-10-08 13:46:00,
2013-10-08 08:51:00,53.9,52.8,30.08,ENE,60,0.0,8.0,96,0.00,,---,0.01,VWS V14.01,2013-10-08 13:51:00,
2013-10-08 08:56:00,54.4,53.0,30.08,East,94,0.0,8.0,95,0.00,,---,0.01,VWS V14.01,2013-10-08 13:56:00,
2013-10-08 09:02:00,54.8,53.1,30.08,ESE,107,0.0,9.0,94,0.00,,---,0.01,VWS V14.01,2013-10-08 14:02:00,
2013-10-08 09:07:00,55.3,53.0,30.08,East,88,0.0,6.0,92,0.00,,---,0.01,VWS V14.01,2013-10-08 14:07:00,
2013-10-08 09:12:00,55.7,52.5,30.08,NE,55,3.0,6.0,89,0.00,,---,0.01,VWS V14.01,2013-10-08 14:12:00,
2013-10-08 09:17:00,56.1,51.7,30.08,ENE,78,0.0,7.0,85,0.00,,---,0.01,VWS V14.01,2013-10-08 14:17:00,
2013-10-08 09:22:00,56.7,51.6,30.08,East,86,1.0,7.0,83,0.00,,---,0.01,VWS V14.01,2013-10-08 14:22:00,
2013-10-08 09:27:00,57.1,51.7,30.08,East,98,3.0,12.0,82,0.00,,---,0.01,VWS V14.01,2013-10-08 14:27:00,
2013-10-08 09:32:00,57.6,51.1,30.08,ENE,70,0.0,12.0,79,0.00,,---,0.01,VWS V14.01,2013-10-08 14:32:00,
2013-10-08 09:37:00,58.0,50.8,30.08,East,96,3.0,10.0,77,0.00,,---,0.01,VWS V14.01,2013-10-08 14:37:00,
2013-10-08 09:42:00,58.4,50.9,30.08,East,82,1.0,11.0,76,0.00,,---,0.01,VWS V14.01,2013-10-08 14:42:00,
2013-10-08 09:47:00,58.7,51.2,30.08,NNE,28,3.0,13.0,76,0.00,,---,0.01,VWS V14.01,2013-10-08 14:47:00,
2013-10-08 09:52:00,59.0,51.5,30.08,East,87,0.0,13.0,76,0.00,,---,0.01,VWS V14.01,2013-10-08 14:52:00,
2013-10-08 09:57:00,59.2,50.9,30.08,East,92,2.0,13.0,74,0.00,,---,0.01,VWS V14.01,2013-10-08 14:57:00,
2013-10-08 10:02:00,59.6,50.6,30.08,ENE,71,4.0,13.0,72,0.00,,---,0.01,VWS V14.01,2013-10-08 15:02:00,
2013-10-08 10:07:00,59.6,49.8,30.08,ENE,78,3.0,13.0,70,0.00,,---,0.01,VWS V14.01,2013-10-08 15:07:00,
2013-10-08 10:12:00,59.7,50.3,30.08,NE,49,0.0,13.0,71,0.00,,---,0.01,VWS V14.01,2013-10-08 15:12:00,
2013-10-08 10:17:00,60.0,50.2,30.08,ESE,104,6.0,13.0,70,0.00,,---,0.01,VWS V14.01,2013-10-08 15:17:00,
2013-10-08 10:22:00,60.3,50.9,30.08,ENE,73,4.0,13.0,71,0.00,,---,0.01,VWS V14.01,2013-10-08 15:22:00,
2013-10-08 10:27:00,60.7,51.2,30.08,East,92,1.0,13.0,71,0.00,,---,0.01,VWS V14.01,2013-10-08 15:27:00,
2013-10-08 10:32:00,61.2,51.0,30.08,East,82,0.0,13.0,69,0.00,,---,0.01,VWS V14.01,2013-10-08 15:32:00,
2013-10-08 10:37:00,61.6,51.7,30.08,ENE,58,3.0,5.0,70,0.00,,---,0.01,VWS V14.01,2013-10-08 15:37:00,
2013-10-08 10:42:00,61.7,51.0,30.08,NE,56,4.0,9.0,68,0.00,,---,0.01,VWS V14.01,2013-10-08 15:42:00,
2013-10-08 10:47:00,61.8,51.1,30.07,ENE,67,0.0,13.0,68,0.00,,---,0.01,VWS V14.01,2013-10-08 15:47:00,
2013-10-08 10:52:00,62.0,50.5,30.07,SE,124,6.0,14.0,66,0.00,,---,0.01,VWS V14.01,2013-10-08 15:52:00,
2013-10-08 10:57:00,62.2,51.5,30.07,East,82,3.0,14.0,68,0.00,,---,0.01,VWS V14.01,2013-10-08 15:57:00,
2013-10-08 11:02:00,62.6,51.9,30.07,ENE,61,4.0,14.0,68,0.00,,---,0.01,VWS V14.01,2013-10-08 16:02:00,
2013-10-08 11:07:00,62.7,51.2,30.07,East,84,4.0,11.0,66,0.00,,---,0.01,VWS V14.01,2013-10-08 16:07:00,
2013-10-08 11:12:00,63.1,50.3,30.07,ENE,57,7.0,11.0,63,0.00,,---,0.01,VWS V14.01,2013-10-08 16:12:00,
2013-10-08 11:17:00,63.1,49.5,30.07,East,95,11.0,13.0,61,0.00,,---,0.01,VWS V14.01,2013-10-08 16:17:00,
2013-10-08 11:22:00,63.1,49.0,30.07,East,98,4.0,13.0,60,0.00,,---,0.01,VWS V14.01,2013-10-08 16:22:00,
2013-10-08 11:27:00,63.3,49.6,30.07,East,82,4.0,13.0,61,0.00,,---,0.01,VWS V14.01,2013-10-08 16:27:00,
2013-10-08 11:32:00,63.7,49.6,30.07,ESE,106,6.0,13.0,60,0.00,,---,0.01,VWS V14.01,2013-10-08 16:32:00,
2013-10-08 11:37:00,63.9,50.2,30.07,ENE,67,0.0,14.0,61,0.00,,---,0.01,VWS V14.01,2013-10-08 16:37:00,
2013-10-08 11:42:00,64.3,49.2,30.07,ENE,65,2.0,14.0,58,0.00,,---,0.01,VWS V14.01,2013-10-08 16:42:00,
2013-10-08 11:47:00,64.3,48.8,30.07,East,86,0.0,14.0,57,0.00,,---,0.01,VWS V14.01,2013-10-08 16:47:00,
2013-10-08 11:52:00,64.6,49.5,30.07,East,99,1.0,14.0,58,0.00,,---,0.01,VWS V14.01,2013-10-08 16:52:00,
2013-10-08 11:57:00,64.7,48.7,30.07,ENE,67,5.0,14.0,56,0.00,,---,0.01,VWS V14.01,2013-10-08 16:57:00,
2013-10-08 12:02:00,64.4,48.8,30.06,East,88,3.0,14.0,57,0.00,,---,0.01,VWS V14.01,2013-10-08 17:02:00,
2013-10-08 12:07:00,64.8,48.8,30.06,North,5,2.0,13.0,56,0.00,,---,0.01,VWS V14.01,2013-10-08 17:07:00,
2013-10-08 12:12:00,65.0,48.0,30.06,ENE,61,8.0,13.0,54,0.00,,---,0.01,VWS V14.01,2013-10-08 17:12:00,
2013-10-08 12:17:00,65.0,48.5,30.06,ENE,68,3.0,13.0,55,0.00,,---,0.01,VWS V14.01,2013-10-08 17:17:00,
2013-10-08 12:22:00,64.9,47.9,30.06,East,90,4.0,15.0,54,0.00,,---,0.01,VWS V14.01,2013-10-08 17:22:00,
2013-10-08 12:27:00,64.9,48.8,30.06,ESE,105,4.0,15.0,56,0.00,,---,0.01,VWS V14.01,2013-10-08 17:27:00,
2013-10-08 12:32:00,65.3,49.2,30.05,NE,38,1.0,15.0,56,0.00,,---,0.01,VWS V14.01,2013-10-08 17:32:00,
2013-10-08 12:37:00,65.7,48.1,30.05,ENE,68,2.0,15.0,53,0.00,,---,0.01,VWS V14.01,2013-10-08 17:37:00,
2013-10-08 12:42:00,65.8,48.7,30.05,ENE,72,4.0,15.0,54,0.00,,---,0.01,VWS V14.01,2013-10-08 17:42:00,
2013-10-08 12:47:00,65.8,48.2,30.04,East,83,3.0,15.0,53,0.00,,---,0.01,VWS V14.01,2013-10-08 17:47:00,
2013-10-08 12:52:00,66.0,48.4,30.04,NE,55,0.0,15.0,53,0.00,,---,0.01,VWS V14.01,2013-10-08 17:52:00,
2013-10-08 12:57:00,66.5,48.9,30.04,ESE,108,1.0,15.0,53,0.00,,---,0.01,VWS V14.01,2013-10-08 17:57:00,
2013-10-08 13:02:00,66.8,49.1,30.04,East,82,7.0,15.0,53,0.00,,---,0.01,VWS V14.01,2013-10-08 18:02:00,
2013-10-08 13:07:00,66.7,47.5,30.04,ENE,59,1.0,12.0,50,0.00,,---,0.01,VWS V14.01,2013-10-08 18:07:00,
2013-10-08 13:12:00,67.0,48.3,30.04,ESE,105,7.0,12.0,51,0.00,,---,0.01,VWS V14.01,2013-10-08 18:12:00,
2013-10-08 13:17:00,66.7,48.5,30.03,ESE,110,5.0,13.0,52,0.00,,---,0.01,VWS V14.01,2013-10-08 18:17:00,
2013-10-08 13:22:00,66.9,49.2,30.03,ESE,121,5.0,13.0,53,0.00,,---,0.01,VWS V14.01,2013-10-08 18:22:00,
2013-10-08 13:27:00,67.0,48.8,30.03,ESE,119,3.0,13.0,52,0.00,,---,0.01,VWS V14.01,2013-10-08 18:27:00,
2013-10-08 13:32:00,67.4,48.7,30.02,East,89,0.0,14.0,51,0.00,,---,0.01,VWS V14.01,2013-10-08 18:32:00,
2013-10-08 13:37:00,67.7,49.5,30.02,East,85,3.0,9.0,52,0.00,,---,0.01,VWS V14.01,2013-10-08 18:37:00,
2013-10-08 13:42:00,67.6,48.8,30.02,ESE,112,1.0,11.0,51,0.00,,---,0.01,VWS V14.01,2013-10-08 18:42:00,
2013-10-08 13:47:00,67.6,48.8,30.02,ENE,78,1.0,13.0,51,0.00,,---,0.01,VWS V14.01,2013-10-08 18:47:00,
2013-10-08 13:52:00,67.9,48.6,30.02,NE,55,3.0,13.0,50,0.00,,---,0.01,VWS V14.01,2013-10-08 18:52:00,
2013-10-08 13:57:00,68.2,49.4,30.02,East,89,2.0,13.0,51,0.00,,---,0.01,VWS V14.01,2013-10-08 18:57:00,
2013-10-08 14:02:00,68.4,49.1,30.01,East,79,3.0,13.0,50,0.00,,---,0.01,VWS V14.01,2013-10-08 19:02:00,
2013-10-08 14:07:00,68.2,48.3,30.01,ENE,68,5.0,11.0,49,0.00,,---,0.01,VWS V14.01,2013-10-08 19:07:00,
2013-10-08 14:12:00,68.1,49.3,30.01,ESE,113,3.0,12.0,51,0.00,,---,0.01,VWS V14.01,2013-10-08 19:12:00,
2013-10-08 14:17:00,68.2,49.4,30.01,NE,49,7.0,13.0,51,0.00,,---,0.01,VWS V14.01,2013-10-08 19:17:00,
2013-10-08 14:22:00,68.2,48.3,30.01,ENE,71,6.0,13.0,49,0.00,,---,0.01,VWS V14.01,2013-10-08 19:22:00,
2013-10-08 14:27:00,68.3,48.4,30.01,East,96,0.0,14.0,49,0.00,,---,0.01,VWS V14.01,2013-10-08 19:27:00,
2013-10-08 14:32:00,68.3,48.4,30.00,NE,38,3.0,14.0,49,0.00,,---,0.01,VWS V14.01,2013-10-08 19:32:00,
2013-10-08 14:37:00,68.1,47.7,30.00,NE,41,3.0,16.0,48,0.00,,---,0.01,VWS V14.01,2013-10-08 19:37:00,
2013-10-08 14:42:00,68.5,48.6,30.00,ENE,69,4.0,16.0,49,0.00,,---,0.01,VWS V14.01,2013-10-08 19:42:00,
2013-10-08 14:47:00,68.5,48.6,30.00,NE,35,3.0,16.0,49,0.00,,---,0.01,VWS V14.01,2013-10-08 19:47:00,
2013-10-08 14:52:00,68.5,48.6,30.00,East,79,5.0,16.0,49,0.00,,---,0.01,VWS V14.01,2013-10-08 19:52:00,
2013-10-08 14:57:00,68.6,48.7,30.00,East,96,5.0,16.0,49,0.00,,---,0.01,VWS V14.01,2013-10-08 19:57:00,
2013-10-08 15:02:00,68.6,48.2,30.00,NE,42,6.0,16.0,48,0.00,,---,0.01,VWS V14.01,2013-10-08 20:02:00,
2013-10-08 15:07:00,68.6,48.7,30.00,East,82,5.0,12.0,49,0.00,,---,0.01,VWS V14.01,2013-10-08 20:07:00,
2013-10-08 15:12:00,68.9,49.0,30.00,NE,38,5.0,12.0,49,0.00,,---,0.01,VWS V14.01,2013-10-08 20:12:00,
2013-10-08 15:17:00,69.1,49.2,29.99,ENE,58,0.0,12.0,49,0.00,,---,0.01,VWS V14.01,2013-10-08 20:17:00,
2013-10-08 15:22:00,69.4,49.4,29.99,NE,49,2.0,12.0,49,0.00,,---,0.01,VWS V14.01,2013-10-08 20:22:00,
2013-10-08 15:27:00,69.3,49.9,29.99,ENE,70,8.0,12.0,50,0.00,,---,0.01,VWS V14.01,2013-10-08 20:27:00,
2013-10-08 15:32:00,69.0,49.6,29.99,ENE,62,9.0,12.0,50,0.00,,---,0.01,VWS V14.01,2013-10-08 20:32:00,
2013-10-08 15:37:00,68.9,49.5,29.99,ENE,63,1.0,9.0,50,0.00,,---,0.01,VWS V14.01,2013-10-08 20:37:00,
2013-10-08 15:42:00,68.8,49.4,29.99,ENE,78,2.0,11.0,50,0.00,,---,0.01,VWS V14.01,2013-10-08 20:42:00,
2013-10-08 15:47:00,69.0,49.6,29.99,NNE,17,0.0,11.0,50,0.00,,---,0.01,VWS V14.01,2013-10-08 20:47:00,
2013-10-08 15:52:00,69.2,49.8,29.99,ENE,76,5.0,12.0,50,0.00,,---,0.01,VWS V14.01,2013-10-08 20:52:00,
2013-10-08 15:57:00,68.8,49.4,29.99,NE,38,3.0,12.0,50,0.00,,---,0.01,VWS V14.01,2013-10-08 20:57:00,
2013-10-08 16:02:00,68.6,49.2,29.99,ESE,108,4.0,12.0,50,0.00,,---,0.01,VWS V14.01,2013-10-08 21:02:00,
2013-10-08 16:07:00,68.5,49.7,29.99,ENE,69,0.0,7.0,51,0.00,,---,0.01,VWS V14.01,2013-10-08 21:07:00,
2013-10-08 16:12:00,68.7,50.4,29.99,East,88,0.0,7.0,52,0.00,,---,0.01,VWS V14.01,2013-10-08 21:12:00,
2013-10-08 16:17:00,68.6,49.8,29.98,NE,34,1.0,7.0,51,0.00,,---,0.01,VWS V14.01,2013-10-08 21:17:00,
2013-10-08 16:22:00,68.7,50.4,29.98,ENE,78,4.0,9.0,52,0.00,,---,0.01,VWS V14.01,2013-10-08 21:22:00,
2013-10-08 16:27:00,68.3,49.5,29.98,NE,34,0.0,9.0,51,0.00,,---,0.01,VWS V14.01,2013-10-08 21:27:00,
2013-10-08 16:32:00,68.1,49.8,29.99,NE,49,2.0,9.0,52,0.00,,---,0.01,VWS V14.01,2013-10-08 21:32:00,
2013-10-08 16:37:00,68.2,49.9,29.99,ENE,71,2.0,6.0,52,0.00,,---,0.01,VWS V14.01,2013-10-08 21:37:00,
2013-10-08 16:42:00,68.2,49.4,29.99,NE,52,8.0,10.0,51,0.00,,---,0.01,VWS V14.01,2013-10-08 21:42:00,
2013-10-08 16:47:00,68.0,49.7,29.99,East,84,3.0,10.0,52,0.00,,---,0.01,VWS V14.01,2013-10-08 21:47:00,
2013-10-08 16:52:00,67.9,50.2,29.99,ESE,121,5.0,10.0,53,0.00,,---,0.01,VWS V14.01,2013-10-08 21:52:00,
2013-10-08 16:57:00,67.6,49.9,29.99,ENE,61,6.0,10.0,53,0.00,,---,0.01,VWS V14.01,2013-10-08 21:57:00,
2013-10-08 17:02:00,67.5,49.8,29.99,East,89,0.0,10.0,53,0.00,,---,0.01,VWS V14.01,2013-10-08 22:02:00,
2013-10-08 17:07:00,67.4,50.2,29.99,ENE,62,1.0,6.0,54,0.00,,---,0.01,VWS V14.01,2013-10-08 22:07:00,
2013-10-08 17:12:00,67.3,50.1,29.99,East,91,1.0,7.0,54,0.00,,---,0.01,VWS V14.01,2013-10-08 22:12:00,
2013-10-08 17:17:00,67.2,50.5,29.99,ENE,74,1.0,7.0,55,0.00,,---,0.01,VWS V14.01,2013-10-08 22:17:00,
2013-10-08 17:22:00,67.1,49.9,29.99,ESE,103,2.0,7.0,54,0.00,,---,0.01,VWS V14.01,2013-10-08 22:22:00,
2013-10-08 17:27:00,66.9,50.2,29.99,East,92,1.0,7.0,55,0.00,,---,0.01,VWS V14.01,2013-10-08 22:27:00,
2013-10-08 17:32:00,66.8,50.6,29.99,East,80,0.0,7.0,56,0.00,,---,0.01,VWS V14.01,2013-10-08 22:32:00,
2013-10-08 17:37:00,66.6,50.4,29.99,East,86,0.0,3.0,56,0.00,,---,0.01,VWS V14.01,2013-10-08 22:37:00,
2013-10-08 17:42:00,66.4,50.7,29.99,ESE,107,1.0,3.0,57,0.00,,---,0.01,VWS V14.01,2013-10-08 22:42:00,
2013-10-08 17:47:00,66.2,51.0,29.99,NE,43,0.0,3.0,58,0.00,,---,0.01,VWS V14.01,2013-10-08 22:47:00,
2013-10-08 17:52:00,66.0,50.8,29.99,East,86,0.0,3.0,58,0.00,,---,0.01,VWS V14.01,2013-10-08 22:52:00,
2013-10-08 17:57:00,65.7,51.0,29.99,East,85,0.0,3.0,59,0.00,,---,0.01,VWS V14.01,2013-10-08 22:57:00,
2013-10-08 18:02:00,65.4,50.7,29.99,East,85,0.0,3.0,59,0.00,,---,0.01,VWS V14.01,2013-10-08 23:02:00,
2013-10-08 18:07:00,65.2,51.0,29.99,East,85,0.0,1.0,60,0.00,,---,0.01,VWS V14.01,2013-10-08 23:07:00,
2013-10-08 18:12:00,64.9,51.2,29.99,East,85,0.0,1.0,61,0.00,,---,0.01,VWS V14.01,2013-10-08 23:12:00,
2013-10-08 18:17:00,64.4,51.1,29.99,East,86,0.0,1.0,62,0.00,,---,0.01,VWS V14.01,2013-10-08 23:17:00,
2013-10-08 18:22:00,64.1,52.5,29.99,East,85,0.0,1.0,66,0.00,,---,0.01,VWS V14.01,2013-10-08 23:22:00,
2013-10-08 18:27:00,63.4,52.7,29.99,East,85,0.0,1.0,68,0.00,,---,0.01,VWS V14.01,2013-10-08 23:27:00,
2013-10-08 18:32:00,62.6,52.3,29.99,East,85,0.0,1.0,69,0.00,,---,0.01,VWS V14.01,2013-10-08 23:32:00,
2013-10-08 18:37:00,62.0,52.1,29.99,East,85,0.0,0.0,70,0.00,,---,0.01,VWS V14.01,2013-10-08 23:37:00,
2013-10-08 18:42:00,61.3,51.8,29.99,East,85,0.0,0.0,71,0.00,,---,0.01,VWS V14.01,2013-10-08 23:42:00,
2013-10-08 18:47:00,60.6,51.5,30.00,East,85,0.0,0.0,72,0.00,,---,0.01,VWS V14.01,2013-10-08 23:47:00,
2013-10-08 18:52:00,60.0,51.7,30.00,East,85,0.0,0.0,74,0.00,,---,0.01,VWS V14.01,2013-10-08 23:52:00,
2013-10-08 18:57:00,59.2,51.3,30.00,East,85,0.0,0.0,75,0.00,,---,0.01,VWS V14.01,2013-10-08 23:57:00,
2013-10-08 19:02:00,58.7,51.2,30.00,East,85,0.0,0.0,76,0.00,,---,0.01,VWS V14.01,2013-10-09 00:02:00,
2013-10-08 19:07:00,58.2,51.4,30.00,East,85,0.0,0.0,78,0.00,,---,0.01,VWS V14.01,2013-10-09 00:07:00,
2013-10-08 19:12:00,57.7,51.2,30.00,East,85,0.0,0.0,79,0.00,,---,0.01,VWS V14.01,2013-10-09 00:12:00,
2013-10-08 19:17:00,57.1,51.0,30.01,East,85,0.0,0.0,80,0.00,,---,0.01,VWS V14.01,2013-10-09 00:17:00,
2013-10-08 19:22:00,56.6,50.8,30.01,East,85,0.0,0.0,81,0.00,,---,0.01,VWS V14.01,2013-10-09 00:22:00,
2013-10-08 19:27:00,56.1,50.7,30.01,East,85,0.0,0.0,82,0.00,,---,0.01,VWS V14.01,2013-10-09 00:27:00,
2013-10-08 19:32:00,55.7,50.6,30.01,East,85,0.0,0.0,83,0.00,,---,0.01,VWS V14.01,2013-10-09 00:32:00,
2013-10-08 19:37:00,55.3,50.6,30.01,East,85,0.0,0.0,84,0.00,,---,0.01,VWS V14.01,2013-10-09 00:37:00,
2013-10-08 19:42:00,55.0,50.3,30.01,East,85,0.0,0.0,84,0.00,,---,0.01,VWS V14.01,2013-10-09 00:42:00,
2013-10-08 19:47:00,54.7,50.3,30.01,East,85,0.0,0.0,85,0.00,,---,0.01,VWS V14.01,2013-10-09 00:47:00,
2013-10-08 19:52:00,54.5,50.1,30.01,East,85,0.0,0.0,85,0.00,,---,0.01,VWS V14.01,2013-10-09 00:52:00,
2013-10-08 19:57:00,54.4,50.0,30.01,East,85,0.0,0.0,85,0.00,,---,0.01,VWS V14.01,2013-10-09 00:57:00,
2013-10-08 20:02:00,54.4,50.0,30.01,East,85,0.0,0.0,85,0.00,,---,0.01,VWS V14.01,2013-10-09 01:02:00,
2013-10-08 20:07:00,54.3,49.9,30.01,East,85,0.0,0.0,85,0.00,,---,0.01,VWS V14.01,2013-10-09 01:07:00,
2013-10-08 20:12:00,54.4,50.0,30.01,East,85,0.0,0.0,85,0.00,,---,0.01,VWS V14.01,2013-10-09 01:12:00,
2013-10-08 20:17:00,54.3,49.9,30.01,East,85,0.0,0.0,85,0.00,,---,0.01,VWS V14.01,2013-10-09 01:17:00,
2013-10-08 20:22:00,54.4,50.3,30.01,East,85,0.0,0.0,86,0.00,,---,0.01,VWS V14.01,2013-10-09 01:22:00,
2013-10-08 20:27:00,54.5,50.4,30.01,East,85,0.0,0.0,86,0.00,,---,0.01,VWS V14.01,2013-10-09 01:27:00,
2013-10-08 20:32:00,54.5,50.4,30.01,East,85,0.0,0.0,86,0.00,,---,0.01,VWS V14.01,2013-10-09 01:32:00,
2013-10-08 20:37:00,54.2,50.1,30.01,East,85,0.0,0.0,86,0.00,,---,0.01,VWS V14.01,2013-10-09 01:37:00,
2013-10-08 20:42:00,54.0,50.2,30.01,East,85,0.0,0.0,87,0.00,,---,0.01,VWS V14.01,2013-10-09 01:42:00,
2013-10-08 20:47:00,53.8,50.0,30.01,East,85,0.0,0.0,87,0.00,,---,0.01,VWS V14.01,2013-10-09 01:47:00,
2013-10-08 20:52:00,53.6,50.1,30.01,East,85,0.0,0.0,88,0.00,,---,0.01,VWS V14.01,2013-10-09 01:52:00,
2013-10-08 20:57:00,53.4,49.9,30.01,East,85,0.0,0.0,88,0.00,,---,0.01,VWS V14.01,2013-10-09 01:57:00,
2013-10-08 21:02:00,53.2,50.0,30.01,East,85,0.0,0.0,89,0.00,,---,0.01,VWS V14.01,2013-10-09 02:02:00,
2013-10-08 21:07:00,53.1,50.0,30.01,East,85,0.0,0.0,89,0.00,,---,0.01,VWS V14.01,2013-10-09 02:07:00,
2013-10-08 21:12:00,53.0,49.8,30.01,East,85,0.0,0.0,89,0.00,,---,0.01,VWS V14.01,2013-10-09 02:12:00,
2013-10-08 21:17:00,52.8,49.7,30.01,East,85,0.0,0.0,89,0.00,,---,0.01,VWS V14.01,2013-10-09 02:17:00,
2013-10-08 21:22:00,52.7,49.5,30.01,East,85,0.0,0.0,89,0.00,,---,0.01,VWS V14.01,2013-10-09 02:22:00,
2013-10-08 21:27:00,52.5,49.7,30.01,East,85,0.0,0.0,90,0.00,,---,0.01,VWS V14.01,2013-10-09 02:27:00,
2013-10-08 21:32:00,52.4,49.6,30.01,East,85,0.0,0.0,90,0.00,,---,0.01,VWS V14.01,2013-10-09 02:32:00,
2013-10-08 21:37:00,52.3,49.8,30.01,East,85,0.0,0.0,91,0.00,,---,0.01,VWS V14.01,2013-10-09 02:37:00,
2013-10-08 21:42:00,52.3,49.8,30.01,East,85,0.0,0.0,91,0.00,,---,0.01,VWS V14.01,2013-10-09 02:42:00,
2013-10-08 21:47:00,52.2,49.7,30.01,East,85,0.0,0.0,91,0.00,,---,0.01,VWS V14.01,2013-10-09 02:47:00,
2013-10-08 21:52:00,52.1,49.6,30.01,East,85,0.0,0.0,91,0.00,,---,0.01,VWS V14.01,2013-10-09 02:52:00,
2013-10-08 21:57:00,52.0,49.5,30.01,East,85,0.0,0.0,91,0.00,,---,0.01,VWS V14.01,2013-10-09 02:57:00,
2013-10-08 22:02:00,52.1,49.6,30.01,East,85,0.0,0.0,91,0.00,,---,0.01,VWS V14.01,2013-10-09 03:02:00,
2013-10-08 22:07:00,52.3,50.0,30.01,East,85,0.0,0.0,92,0.00,,---,0.01,VWS V14.01,2013-10-09 03:07:00,
2013-10-08 22:12:00,52.3,49.8,30.01,East,85,0.0,0.0,91,0.00,,---,0.01,VWS V14.01,2013-10-09 03:12:00,
2013-10-08 22:17:00,52.3,49.8,30.01,East,85,0.0,0.0,91,0.00,,---,0.01,VWS V14.01,2013-10-09 03:17:00,
2013-10-08 22:22:00,52.2,49.7,30.01,East,85,0.0,0.0,91,0.00,,---,0.01,VWS V14.01,2013-10-09 03:22:00,
2013-10-08 22:27:00,52.2,49.7,30.01,East,85,0.0,0.0,91,0.00,,---,0.01,VWS V14.01,2013-10-09 03:27:00,
2013-10-08 22:32:00,52.2,49.7,30.01,East,85,0.0,0.0,91,0.00,,---,0.01,VWS V14.01,2013-10-09 03:32:00,
2013-10-08 22:37:00,52.2,49.7,30.01,East,85,0.0,0.0,91,0.00,,---,0.01,VWS V14.01,2013-10-09 03:37:00,
2013-10-08 22:42:00,52.2,49.7,30.01,East,85,0.0,0.0,91,0.00,,---,0.01,VWS V14.01,2013-10-09 03:42:00,
2013-10-08 22:47:00,52.1,49.6,30.01,East,85,0.0,0.0,91,0.00,,---,0.01,VWS V14.01,2013-10-09 03:47:00,
2013-10-08 22:52:00,52.0,49.5,30.01,East,85,0.0,0.0,91,0.00,,---,0.01,VWS V14.01,2013-10-09 03:52:00,
2013-10-08 22:57:00,51.8,49.3,30.01,East,85,0.0,0.0,91,0.00,,---,0.01,VWS V14.01,2013-10-09 03:57:00,
2013-10-08 23:01:00,51.7,49.2,30.01,East,85,0.0,0.0,91,0.00,,---,0.01,VWS V14.01,2013-10-09 04:01:00,
2013-10-08 23:06:00,51.6,49.1,30.01,East,85,0.0,0.0,91,0.00,,---,0.01,VWS V14.01,2013-10-09 04:06:00,
2013-10-08 23:11:00,51.6,49.1,30.01,East,85,0.0,0.0,91,0.00,,---,0.01,VWS V14.01,2013-10-09 04:11:00,
2013-10-08 23:16:00,51.6,49.1,30.01,East,85,0.0,0.0,91,0.00,,---,0.01,VWS V14.01,2013-10-09 04:16:00,
2013-10-08 23:21:00,51.6,49.4,30.00,East,85,0.0,0.0,92,0.00,,---,0.01,VWS V14.01,2013-10-09 04:21:00,
2013-10-08 23:26:00,51.5,49.0,30.00,East,85,0.0,0.0,91,0.00,,---,0.01,VWS V14.01,2013-10-09 04:26:00,
2013-10-08 23:31:00,51.3,48.8,30.00,East,85,0.0,0.0,91,0.00,,---,0.01,VWS V14.01,2013-10-09 04:31:00,
2013-10-08 23:36:00,51.2,48.7,30.00,East,85,0.0,0.0,91,0.00,,---,0.01,VWS V14.01,2013-10-09 04:36:00,
2013-10-08 23:41:00,51.2,49.0,30.00,East,85,0.0,0.0,92,0.00,,---,0.01,VWS V14.01,2013-10-09 04:41:00,
2013-10-08 23:46:00,51.2,49.0,29.99,East,85,0.0,0.0,92,0.00,,---,0.01,VWS V14.01,2013-10-09 04:46:00,
2013-10-08 23:51:00,51.1,48.9,29.99,East,85,0.0,0.0,92,0.00,,---,0.01,VWS V14.01,2013-10-09 04:51:00,
2013-10-08 23:56:00,51.0,48.8,29.99,East,85,0.0,0.0,92,0.00,,---,0.01,VWS V14.01,2013-10-09 04:56:00,